Location: Unspecified
(39.1833°N, 0.0000°E)
Time: 22:30:22
(UTC+00:00)

RS-15 - Visible Passes

Search period start: 23 January 2020 00:00
Search period end: 02 February 2020 00:00
Orbit: 1899 x 2145 km, 64.8° (Epoch: 23 January)

Date Brightness Start Highest point End Pass type
(mag) Time Alt. Az. Time Alt. Az. Time Alt. Az.
23 Jan 9.6 01:34:38 19° NNE 01:34:38 19° NNE 01:36:52 10° NNE visible
23 Jan 8.9 03:42:23 28° NNW 03:42:23 28° NNW 03:49:03 10° NNE visible
23 Jan 9.4 05:50:29 10° NW 05:57:01 17° N 06:03:37 10° NE visible
24 Jan 9.8 00:59:50 13° NE 00:59:50 13° NE 01:00:44 10° NE visible
24 Jan 9.0 03:07:35 28° N 03:07:35 28° N 03:13:01 10° NNE visible
24 Jan 9.3 05:15:19 14° NW 05:19:47 18° N 05:26:36 10° NNE visible
25 Jan 9.2 02:32:46 26° NNE 02:32:46 26° NNE 02:37:01 10° NNE visible
25 Jan 9.2 04:40:30 18° NNW 04:42:36 19° NNW 04:49:54 10° NNE visible
26 Jan 9.4 01:57:55 22° NNE 01:57:55 22° NNE 02:01:03 10° NNE visible
26 Jan 9.1 04:05:40 22° NNW 04:05:40 22° NNW 04:13:29 10° NNE visible
26 Jan 9.4 06:16:34 10° NNW 06:23:46 19° NNE 06:31:03 10° ENE visible
27 Jan 9.6 01:23:04 17° NNE 01:23:04 17° NNE 01:25:02 10° NNE visible
27 Jan 9.1 03:30:49 24° NNW 03:30:49 24° NNW 03:37:16 10° NNE visible
27 Jan 9.4 05:39:50 10° NNW 05:46:34 17° N 05:53:22 10° NE visible
28 Jan 9.9 00:48:12 13° NNE 00:48:12 13° NNE 00:48:59 10° NNE visible
28 Jan 9.2 02:55:57 24° N 02:55:57 24° N 03:01:10 10° NNE visible
28 Jan 9.4 05:03:41 12° NNW 05:09:19 17° N 05:15:55 10° NE visible
29 Jan 9.3 02:21:04 23° N 02:21:04 23° N 02:25:08 10° NNE visible
29 Jan 9.3 04:28:49 15° NNW 04:32:04 17° N 04:38:50 10° NNE visible
29 Jan 9.4 06:41:23 10° NNW 06:50:05 25° NNE 06:58:56 10° E visible
30 Jan 9.5 01:46:10 20° NNE 01:46:10 20° NNE 01:49:08 10° NNE visible
30 Jan 9.3 03:53:54 19° NNW 03:54:53 19° NNW 04:02:06 10° NNE visible
30 Jan 9.5 06:05:10 10° NNW 06:13:08 22° NNE 06:21:13 10° ENE visible
31 Jan 9.7 01:11:15 17° NNE 01:11:15 17° NNE 01:13:09 10° NNE visible
31 Jan 9.3 03:19:00 21° NNW 03:19:00 21° NNW 03:25:39 10° NNE visible
31 Jan 9.5 05:28:45 10° NNW 05:36:03 19° NNE 05:43:26 10° ENE visible
01 Feb 9.9 00:36:20 13° NNE 00:36:20 13° NNE 00:37:09 10° NNE visible
01 Feb 9.3 02:44:04 22° N 02:44:04 22° N 02:49:24 10° NNE visible
01 Feb 9.5 04:52:05 10° NNW 04:58:52 18° N 05:05:43 10° NE visible
